Zurück zum Katalog

QIANFAN-85

AktivKommunikationPO
NORAD 63171·PAYLOAD·🇨🇳 China

Gestartet Mar 11, 2025 von Wenchang Space Launch Site

Loading…

Nächste Überflüge (nächste 24 Stunden)

TLE

AktuellSource: Space-Track

Epoche: Sep 14, 2026, 13:55 UTC

1 63171U 25046N   26257.58034050  .00000072  00000-0  92754-4 0  9992
2 63171  88.9651 291.2838 0014838  56.4749 303.7818 13.51020364 84714

Verfolge QIANFAN-85 in Echtzeit mit AllMySat

Download on the App Store